Weather History for Lufkin, TX

Change the Weather History Date:

Sunday, March 24, 2013

  Actual Average Record
Temperature  
Mean Temperature 50 °F 61 °F  
Max Temperature 59 °F 73 °F 88 °F (1907)
Min Temperature 41 °F 50 °F 28 °F (1952)
Degree Days  
Heating Degree Days 15 5  
Month to date heating degree days 178 178  
Since 1 July heating degree days 1444 1812  
Cooling Degree Days 0 2  
Month to date cooling degree days 37 27  
Year to date cooling degree days 59 46  
Growing Degree Days 2 (Base 50)    
Moisture  
Dew Point 38 °F    
Average Humidity 60    
Maximum Humidity 87    
Minimum Humidity 33    
Precipitation  
Precipitation T in 0.12 in 2.71 in (1973)
Month to date precipitation 1.74 2.98  
Year to date precipitation 8.55 11.03  
Snow  
Snow 0.00 in - - ()
Month to date snowfall 0.0  
Since 1 July snowfall 0.0  
Snow Depth 0.00 in    
Sea Level Pressure  
Sea Level Pressure 29.92 in    
Wind  
Wind Speed 12 mph (NW)    
Max Wind Speed 23 mph    
Max Gust Speed 33 mph    
Visibility 10 miles    
Events      
T = Trace of Precipitation, MM = Missing Value Source: NWS Daily Summary

Daily Weather History Graph

Daily Weather History Graph

Search for Another Location

Airport:

Trip Planner

Search our weather history database for the weather conditions in past years. The results will help you decide how hot, cold, wet, or windy it might be!

Date:

Astronomy

Mar. 24, 2013 Rise Set
Actual Time 7:17 AM CDT 7:33 PM CDT
Civil Twilight 6:53 AM CDT 7:57 PM CDT
Nautical Twilight 6:24 AM CDT 8:25 PM CDT
Astronomical Twilight 5:56 AM CDT 8:54 PM CDT
Moon 5:10 PM CDT (3/24) 5:18 AM CDT (3/24)
Length of Visible Light 13h 04m
Length of Day
12h 15m
Waxing Gibbous, 92% of the Moon is Illuminated
Mar 24
Waxing Gibbous
Mar 27
Full
Apr 2
Last Quarter
Apr 10
New
Apr 18
First Quarter

Hourly Weather History & Observations

Time (CDT) Temp. Windchill Dew Point Humidity Pressure Visibility Wind Dir Wind Speed Gust Speed Precip Events Conditions
12:53 AM 59.0 °F - 54.0 °F 83% 29.67 in 8.0 mi Calm Calm - N/A   Overcast
1:21 AM 57.2 °F - 55.4 °F 94% 29.67 in 7.0 mi Calm Calm - N/A   Overcast
1:53 AM 59.0 °F - 55.0 °F 87% 29.65 in 7.0 mi ESE 4.6 mph - N/A   Overcast
2:12 AM 59.0 °F - 55.4 °F 88% 29.73 in 7.0 mi NW 10.4 mph 17.3 mph N/A   Overcast
2:53 AM 59.0 °F - 54.0 °F 83% 29.74 in 8.0 mi NW 10.4 mph - 0.00 in   Overcast
3:53 AM 57.9 °F - 53.1 °F 84% 29.78 in 8.0 mi NW 12.7 mph 21.9 mph N/A   Overcast
4:13 AM 57.2 °F - 50.0 °F 77% 29.80 in 10.0 mi NW 8.1 mph 26.5 mph N/A   Overcast
4:53 AM 55.0 °F - 48.9 °F 80% 29.81 in 10.0 mi NNW 6.9 mph 19.6 mph N/A   Overcast
5:04 AM 55.4 °F - 48.2 °F 77% 29.81 in 10.0 mi NW 4.6 mph - N/A   Overcast
5:53 AM 54.0 °F - 46.0 °F 75% 29.84 in 10.0 mi NW 9.2 mph - N/A   Mostly Cloudy
6:12 AM 53.6 °F - 44.6 °F 72% 29.86 in 10.0 mi WNW 8.1 mph - N/A   Overcast
6:53 AM 53.1 °F - 43.0 °F 69% 29.87 in 10.0 mi NW 13.8 mph 26.5 mph N/A   Overcast
7:40 AM 50.0 °F - 37.4 °F 62% 29.91 in 10.0 mi NW 12.7 mph 26.5 mph N/A   Partly Cloudy
7:53 AM 48.9 °F - 37.0 °F 64% 29.92 in 10.0 mi NW 13.8 mph 24.2 mph N/A   Clear
8:53 AM 46.9 °F - 34.0 °F 61% 29.97 in 10.0 mi WNW 16.1 mph 23.0 mph N/A   Scattered Clouds
9:53 AM 48.9 °F - 33.1 °F 54% 30.00 in 10.0 mi NW 16.1 mph 24.2 mph N/A   Mostly Cloudy
10:13 AM 50.0 °F - 33.8 °F 54% 30.01 in 10.0 mi NW 16.1 mph 25.3 mph N/A   Scattered Clouds
10:53 AM 52.0 °F - 30.9 °F 45% 30.02 in 10.0 mi NW 17.3 mph 25.3 mph N/A   Clear
11:53 AM 52.0 °F - 28.9 °F 41% 30.03 in 10.0 mi WNW 18.4 mph 32.2 mph N/A   Clear
12:53 PM 55.0 °F - 30.0 °F 38% 30.02 in 10.0 mi NW 16.1 mph 28.8 mph N/A   Clear
1:53 PM 55.0 °F - 28.9 °F 37% 30.02 in 10.0 mi NW 18.4 mph 27.6 mph N/A   Clear
2:53 PM 57.0 °F - 28.9 °F 34% 30.00 in 10.0 mi WNW 15.0 mph 25.3 mph N/A   Clear
3:53 PM 57.9 °F - 28.0 °F 32% 30.00 in 10.0 mi NNW 20.7 mph 31.1 mph N/A   Clear
4:53 PM 57.0 °F - 28.0 °F 33% 29.99 in 10.0 mi NNW 13.8 mph 26.5 mph N/A   Clear
5:53 PM 57.0 °F - 28.0 °F 33% 30.00 in 10.0 mi NNW 15.0 mph 24.2 mph N/A   Clear
6:53 PM 54.0 °F - 26.1 °F 34% 30.01 in 10.0 mi NNW 10.4 mph - N/A   Clear
7:53 PM 51.1 °F - 27.0 °F 39% 30.04 in 10.0 mi NNW 6.9 mph - N/A   Clear
8:53 PM 48.9 °F - 28.0 °F 44% 30.06 in 10.0 mi NNW 3.5 mph - N/A   Clear
9:53 PM 46.9 °F - 28.0 °F 48% 30.10 in 10.0 mi North 6.9 mph - N/A   Clear
10:53 PM 46.0 °F 44.8 °F 28.0 °F 50% 30.13 in 10.0 mi NNW 3.5 mph - N/A   Clear
11:53 PM 44.1 °F 41.5 °F 27.0 °F 51% 30.14 in 10.0 mi NNW 4.6 mph - N/A   Clear